| time (UTC) | temp F | wind direction | speed MPH | gust MPH | rain 1hr in | rain 24hr in | rain mn in | humidity % | barometer mb |
| 20260510141540 | 46 | 241 | 0.0 | 0.0 | 0.00 | 0.15 | 0.00 | 67 | 1014.7 |
| 20260510140038 | 46 | 251 | 0.0 | 0.0 | 0.00 | 0.15 | 0.00 | 69 | 1014.5 |
| 20260510134519 | 46 | 263 | 0.0 | 0.0 | 0.00 | 0.15 | 0.00 | 69 | 1014.3 |
| 20260510133016 | 45 | 273 | 0.0 | 0.0 | 0.00 | 0.15 | 0.00 | 73 | 1014.0 |
| 20260510131558 | 45 | 239 | 0.0 | 0.0 | 0.00 | 0.15 | 0.00 | 74 | 1013.9 |
| 20260510130112 | 44 | 253 | 0.0 | 0.0 | 0.00 | 0.15 | 0.00 | 75 | 1013.8 |
| 20260510124540 | 44 | 291 | 0.0 | 0.0 | 0.00 | 0.15 | 0.00 | 75 | 1013.6 |
| 20260510123038 | 44 | 346 | 0.0 | 0.0 | 0.00 | 0.15 | 0.00 | 75 | 1013.5 |
| 20260510121526 | 44 | 17 | 0.0 | 0.0 | 0.00 | 0.15 | 0.00 | 72 | 1013.4 |
| 20260510120029 | 43 | 345 | 0.0 | 0.0 | 0.00 | 0.15 | 0.00 | 76 | 1013.2 |
| 20260510114523 | 43 | 243 | 0.0 | 0.0 | 0.00 | 0.15 | 0.00 | 82 | 1013.0 |
| 20260510113021 | 43 | 247 | 0.0 | 0.0 | 0.00 | 0.15 | 0.00 | 83 | 1012.8 |
| 20260510111518 | 43 | 243 | 0.0 | 0.0 | 0.00 | 0.15 | 0.00 | 82 | 1012.5 |
| 20260510110016 | 43 | 231 | 0.0 | 0.0 | 0.00 | 0.15 | 0.00 | 82 | 1012.4 |
| 20260510104514 | 42 | 218 | 0.0 | 0.0 | 0.00 | 0.15 | 0.00 | 84 | 1012.2 |
| 20260510103013 | 41 | 25 | 0.0 | 0.0 | 0.00 | 0.15 | 0.00 | 86 | 1012.0 |
| 20260510101557 | 40 | 22 | 0.0 | 0.0 | 0.00 | 0.15 | 0.00 | 86 | 1011.8 |
| 20260510100058 | 40 | 22 | 0.0 | 0.0 | 0.00 | 0.15 | 0.00 | 85 | 1011.7 |
| 20260510094535 | 40 | 22 | 0.0 | 0.0 | 0.00 | 0.15 | 0.00 | 84 | 1011.4 |
| 20260510093030 | 41 | 22 | 0.0 | 0.0 | 0.00 | 0.15 | 0.00 | 83 | 1010.9 |
| 20260510091513 | 41 | 22 | 0.0 | 0.0 | 0.00 | 0.15 | 0.00 | 83 | 1010.8 |
| 20260510090008 | 40 | 22 | 0.0 | 0.0 | 0.00 | 0.15 | 0.00 | 82 | 1010.4 |
| 20260510084549 | 41 | 22 | 0.0 | 0.0 | 0.00 | 0.15 | 0.00 | 80 | 1010.1 |
| 20260510083047 | 41 | 22 | 0.0 | 0.0 | 0.00 | 0.15 | 0.00 | 80 | 1009.9 |
| 20260510081528 | 41 | 22 | 0.0 | 0.0 | 0.00 | 0.15 | 0.00 | 79 | 1009.7 |
| 20260510080032 | 42 | 22 | 0.0 | 0.0 | 0.00 | 0.15 | 0.00 | 79 | 1009.4 |
| 20260510074509 | 42 | 16 | 0.0 | 0.0 | 0.00 | 0.15 | 0.00 | 78 | 1009.3 |
| 20260510073010 | 41 | 16 | 0.0 | 0.0 | 0.00 | 0.15 | 0.00 | 80 | 1009.1 |
| 20260510071548 | 40 | 51 | 0.0 | 0.0 | 0.00 | 0.15 | 0.00 | 82 | 1009.1 |
| 20260510070048 | 40 | 52 | 0.0 | 0.0 | 0.00 | 0.15 | 0.00 | 81 | 1009.0 |
| 20260510064545 | 42 | 69 | 0.0 | 0.0 | 0.00 | 0.15 | 0.00 | 80 | 1008.8 |
| 20260510063029 | 42 | 90 | 0.0 | 0.0 | 0.00 | 0.15 | 0.00 | 79 | 1008.7 |
| 20260510061526 | 43 | 95 | 0.0 | 0.0 | 0.00 | 0.15 | 0.00 | 78 | 1008.5 |
| 20260510060023 | 43 | 83 | 0.0 | 0.0 | 0.00 | 0.15 | 0.00 | 78 | 1008.4 |
| 20260510054526 | 43 | 154 | 0.0 | 0.0 | 0.00 | 0.15 | 0.00 | 78 | 1008.4 |
| 20260510053037 | 43 | 9 | 0.0 | 0.0 | 0.00 | 0.15 | 0.00 | 78 | 1008.2 |
| 20260510051518 | 44 | 25 | 0.0 | 0.0 | 0.00 | 0.15 | 0.00 | 79 | 1008.0 |
| 20260510050015 | 44 | 8 | 0.0 | 0.0 | 0.00 | 0.15 | 0.00 | 78 | 1007.6 |
| 20260510044556 | 45 | 120 | 0.0 | 0.0 | 0.00 | 0.15 | 0.00 | 76 | 1007.5 |
| 20260510043051 | 46 | 354 | 0.0 | 0.0 | 0.00 | 0.15 | 0.00 | 73 | 1007.3 |
| 20260510041531 | 47 | 37 | 0.0 | 0.0 | 0.00 | 0.15 | 0.00 | 75 | 1006.9 |
| 20260510040028 | 47 | 4 | 0.0 | 0.0 | 0.00 | 0.15 | 0.00 | 79 | 1006.6 |
| 20260510034507 | 47 | 21 | 0.0 | 0.0 | 0.00 | 0.15 | 0.15 | 79 | 1006.3 |
| 20260510033007 | 47 | 27 | 0.0 | 0.0 | 0.00 | 0.15 | 0.15 | 77 | 1006.1 |
| 20260510031547 | 48 | 4 | 0.0 | 0.0 | 0.00 | 0.15 | 0.15 | 76 | 1006.1 |
| 20260510030046 | 49 | 56 | 0.0 | 0.0 | 0.00 | 0.15 | 0.15 | 75 | 1005.7 |
| 20260510024530 | 49 | 18 | 0.0 | 0.0 | 0.00 | 0.15 | 0.15 | 74 | 1005.6 |
| 20260510023027 | 49 | 4 | 0.0 | 0.0 | 0.00 | 0.15 | 0.15 | 74 | 1005.4 |
| 20260510021508 | 48 | 4 | 0.0 | 0.0 | 0.00 | 0.15 | 0.15 | 76 | 1004.8 |
| 20260510020008 | 48 | 29 | 0.0 | 0.0 | 0.00 | 0.15 | 0.15 | 76 | 1004.6 |
| 20260510014554 | 49 | 4 | 0.0 | 0.0 | 0.00 | 0.15 | 0.15 | 75 | 1004.2 |
| 20260510013100 | 50 | 350 | 0.0 | 0.0 | 0.00 | 0.15 | 0.15 | 71 | 1003.8 |
| 20260510011539 | 52 | 68 | 0.0 | 0.0 | 0.00 | 0.15 | 0.15 | 69 | 1003.2 |
| 20260510010044 | 54 | 12 | 0.0 | 0.0 | 0.00 | 0.15 | 0.15 | 67 | 1003.1 |
| 20260510004539 | 55 | 4 | 0.0 | 0.0 | 0.00 | 0.15 | 0.15 | 69 | 1002.7 |
| 20260510003041 | 56 | 257 | 0.0 | 0.0 | 0.00 | 0.15 | 0.15 | 64 | 1002.2 |
| 20260510001537 | 58 | 215 | 0.0 | 0.0 | 0.00 | 0.15 | 0.15 | 57 | 1001.6 |
| 20260510000037 | 59 | 246 | 0.0 | 0.0 | 0.00 | 0.15 | 0.15 | 57 | 1001.5 |
| 20260509234538 | 59 | 335 | 0.0 | 0.0 | 0.00 | 0.15 | 0.15 | 60 | 1001.3 |
| 20260509233036 | 59 | 216 | 0.0 | 0.0 | 0.00 | 0.15 | 0.15 | 61 | 1000.9 |
| 20260509231524 | 59 | 205 | 0.0 | 0.0 | 0.00 | 0.15 | 0.15 | 61 | 1000.6 |
| 20260509230025 | 60 | 220 | 0.0 | 0.0 | 0.00 | 0.15 | 0.15 | 60 | 1000.3 |
| 20260509224523 | 59 | 212 | 0.0 | 0.0 | 0.00 | 0.15 | 0.15 | 62 | 1000.2 |
| 20260509223024 | 59 | 213 | 0.0 | 0.0 | 0.00 | 0.15 | 0.15 | 62 | 999.9 |
| 20260509221523 | 59 | 212 | 0.0 | 0.0 | 0.00 | 0.15 | 0.15 | 62 | 999.7 |
| 20260509220030 | 61 | 270 | 0.0 | 0.0 | 0.00 | 0.15 | 0.15 | 61 | 999.4 |
| 20260509214521 | 62 | 213 | 0.0 | 0.0 | 0.00 | 0.15 | 0.15 | 57 | 999.0 |
| 20260509213020 | 62 | 256 | 0.0 | 0.0 | 0.00 | 0.15 | 0.15 | 58 | 998.7 |
| 20260509211502 | 62 | 259 | 0.0 | 0.0 | 0.00 | 0.15 | 0.15 | 60 | 998.5 |
| 20260509210000 | 63 | 226 | 0.0 | 0.0 | 0.00 | 0.15 | 0.15 | 65 | 999.1 |
| 20260509204543 | 62 | 183 | 0.0 | 0.0 | 0.00 | 0.15 | 0.15 | 73 | 999.1 |
| 20260509203044 | 61 | 231 | 0.0 | 0.0 | 0.01 | 0.15 | 0.15 | 76 | 999.1 |
| 20260509201526 | 59 | 181 | 0.0 | 0.0 | 0.03 | 0.15 | 0.15 | 83 | 999.3 |
| 20260509200031 | 57 | 203 | 0.0 | 0.0 | 0.14 | 0.15 | 0.15 | 87 | 999.2 |
| 20260509194507 | 54 | 189 | 0.0 | 0.0 | 0.15 | 0.15 | 0.15 | 89 | 999.5 |
| 20260509193006 | 53 | 204 | 0.0 | 0.0 | 0.14 | 0.14 | 0.14 | 85 | 999.9 |
| 20260509191607 | 53 | 253 | 0.0 | 0.0 | 0.12 | 0.12 | 0.12 | 80 | 999.4 |
| 20260509190048 | 62 | 186 | 0.0 | 0.0 | 0.01 | 0.01 | 0.01 | 72 | 998.5 |
| 20260509184548 | 63 | 181 | 0.0 | 0.0 | 0.00 | 0.00 | 0.00 | 65 | 998.4 |
| 20260509183039 | 64 | 179 | 0.0 | 0.0 | 0.00 | 0.00 | 0.00 | 64 | 998.5 |
| 20260509181528 | 64 | 191 | 0.0 | 0.0 | 0.00 | 0.00 | 0.00 | 65 | 998.6 |
| 20260509180010 | 64 | 199 | 0.0 | 0.0 | 0.00 | 0.00 | 0.00 | 63 | 998.8 |
| 20260509174521 | 64 | 174 | 0.0 | 0.0 | 0.00 | 0.00 | 0.00 | 65 | 998.6 |
| 20260509173054 | 62 | 224 | 0.0 | 0.0 | 0.00 | 0.00 | 0.00 | 68 | 999.1 |
| 20260509171547 | 61 | 154 | 0.0 | 0.0 | 0.00 | 0.00 | 0.00 | 70 | 999.4 |
| 20260509170032 | 62 | 179 | 0.0 | 0.0 | 0.00 | 0.00 | 0.00 | 69 | 999.8 |
| 20260509164528 | 64 | 169 | 0.0 | 0.0 | 0.00 | 0.00 | 0.00 | 70 | 999.3 |
| 20260509163010 | 63 | 193 | 0.0 | 0.0 | 0.00 | 0.00 | 0.00 | 73 | 999.5 |
| 20260509161506 | 61 | 152 | 0.0 | 0.0 | 0.00 | 0.00 | 0.00 | 75 | 999.6 |
| 20260509160047 | 61 | 194 | 0.0 | 0.0 | 0.00 | 0.00 | 0.00 | 76 | 999.9 |
| 20260509154544 | 60 | 169 | 0.0 | 0.0 | 0.00 | 0.00 | 0.00 | 78 | 1000.3 |
| 20260509153041 | 59 | 164 | 0.0 | 0.0 | 0.00 | 0.00 | 0.00 | 83 | 1000.9 |
| 20260509151520 | 57 | 182 | 0.0 | 0.0 | 0.00 | 0.00 | 0.00 | 85 | 1000.9 |
| 20260509150004 | 57 | 188 | 0.0 | 0.0 | 0.00 | 0.00 | 0.00 | 85 | 1002.2 |
| 20260509144502 | 57 | 190 | 0.0 | 0.0 | 0.00 | 0.00 | 0.00 | 84 | 1002.3 |
| 20260509143054 | 57 | 277 | 0.0 | 0.0 | 0.00 | 0.00 | 0.00 | 86 | 1001.9 |